www.pogodaiklimat.ru

Погода и климат >> Архив погоды >> Танзания >> Дар-эс-Салам


АРХИВ ПОГОДЫ в Дар-эс-Саламе

Время (UTC), дата Ветер
(напр.,м/с)
 
Видим.   Явления Облачность Т
(С)
Тd
(С)
f
(%)
Тe
(С)
Тes
(С)
Комфортность P
(гПа)
Po
(гПа)
Тmin
(С)
Tmax
(С)
R
(мм)
R24
(мм)
S
(см)
03 18.06 ЮЗ 5 30 км 1/1 360 м
[Cu hum]
+21.3 +20.4 95 +27 +27 душно 1018.1 1012.1
06 18.06 Ю 10 30 км 3/1 420 м
[Cu med, cong Ci fib]
+24.6 +21.3 82 +31 +31 очень
душно
1019.6 1013.6 +21.2
09 18.06 Ю 18 30 км 4/3 800 м
[Cu med, cong Ac trans Ci fib]
+30.1 +22.2 63 +39 +39 очень
душно
1018.8 1012.8
12 18.06 ЮВ 8 30 км 8/6 800 м
[Cu med, cong Ac trans]
+29.1 +22.3 67 +38 +39 очень
душно
1016.9 1010.9
15 18.06 ЮВ 13 30 км 6/3 660 м
[Cu med, cong Cc]
+27.7 +21.4 69 +35 +35 очень
душно
1016.9 1010.9
18 18.06 Ю 5 30 км 4/1 420 м
[Cu hum Ac trans]
+24.4 +21.9 86 +31 +31 очень
душно
1018.3 1012.3 +30.6
21 18.06 Ю 7 30 км 1/1 360 м
[Cu hum]
+22.9 +21.5 92 +31 +31 очень
душно
1018.8 1012.8
00 19.06 Ю 7 30 км 1/1 330 м
[Cu hum]
+22.3 +21.6 96 +29 +29 очень
душно
1017.5 1011.5
03 19.06 Ю 5 30 км 5/4 300 м
[Sc diur, vesp Ac trans]
+22.0 +21.6 98 +29 +29 очень
душно
1017.8 1011.8
09 19.06 Ю 17 30 км 8/8 700 м
[Cu med, cong]
+28.6 +21.9 67 +37 +37 очень
душно
1018.7 1012.7
12 19.06 Ю 12 30 км 6/6 900 м
[Cu med, cong]
+30.5 +22.3 62 +40 +40 очень
душно
1015.9 1009.9
15 19.06 ЮВ 8 30 км 1/1 600 м
[Cu med, cong Ac trans]
+27.8 +21.6 69 +36 +36 очень
душно
1015.7 1009.7
18 19.06 30 км 1/1 400 м
[Cu hum]
+24.4 +22.3 88 1017.3 1011.3 +31.1
21 19.06 Ю 6 30 км 3/1 400 м
[Cu hum]
+22.8 +21.1 90 +30 +30 очень
душно
1017.8 1011.8
03 20.06 Ю 5 30 км 1/1 400 м
[Cu hum]
+22.0 +21.1 95 +28 +28 душно 1016.6 1010.6
09 20.06 Ю 15 30 км 6/6 700 м
[]
+28.1 +21.4 67 +36 +36 очень
душно
1017.8 1011.8
12 20.06 ЮВ 16 30 км 6/6 800 м
[Cu med, cong]
+29.1 +21.2 62 +37 +37 очень
душно
1015.8 1009.8
15 20.06 ЮВ 11 30 км 4/4 600 м
[Cu med, cong]
+26.3 +20.5 70 +33 +33 очень
душно
1015.8 1009.8
18 20.06 Ю 7 30 км 6/1 420 м
[Cu hum Ac trans]
+24.5 +20.9 80 +31 +31 очень
душно
1017.2 1011.2 +30.2
21 20.06 Ю 5 30 км 9/1 400 м
[Cu hum Ac trans]
+23.5 +20.7 84 +29 +29 душно 1011.7 1011.4
00 21.06 Ю 6 30 км ясно +21.1 +19.8 92 +26 +26 душно 1016.8 1010.3
03 21.06 Ю 4 30 км 1/1 300 м
[Cu hum Ac trans]
+21.1 +19.8 92 +26 +26 душно 1017.3 1011.3 396
06 21.06 Ю 8 30 км 1/1 360 м
[Cu med, cong]
+24.4 +20.7 80 +30 +31 очень
душно
1019.0 1013.0 +20.7
09 21.06 Ю 14 30 км 6/6 840 м
[Cu med, cong]
+29.1 +21.3 63 +37 +37 очень
душно
1017.8 1011.8
12 21.06 ЮВ 15 30 км 9/4 840 м
[Cu med, cong Ac trans]
+28.0 +20.4 63 +34 +34 очень
душно
1015.7 1009.7
15 21.06 ЮВ 15 30 км 9/3 720 м
[Cu med, cong Ac trans]
+26.1 +20.3 70 +32 +32 очень
душно
1015.7 1009.7
18 21.06 Ю 3 30 км 8/3 420 м
[Cu med, cong Ac trans]
+23.9 +20.9 83 +30 +30 очень
душно
1016.6 1010.6 +29.9
21 21.06 Ю 3 30 км 3/3 400 м
[Cu med, cong]
+21.4 +19.8 91 +26 +26 душно 1016.4 1010.4
00 22.06 Ю 4 30 км 3/3 360 м
[Cu med, cong]
+20.0 +19.1 95 +23 +23 комфорт 1015.4 1009.4
03 22.06 Ю 5 30 км 3/3 360 м
[Cu med, cong]
+20.0 +19.2 95 +23 +23 комфорт 1016.2 1010.2
06 22.06 Ю 8 30 км 3/3 400 м
[Cu med, cong]
+24.4 +21.4 83 +31 +32 очень
душно
1017.6 1011.6 +19.2
09 22.06 ЮВ 12 30 км 6/6 700 м
[Cu med, cong]
+28.9 +20.8 62 +36 +36 очень
душно
1017.1 1011.1
12 22.06 Ю 8 30 км 9/5 750 м
[Cu med, cong Ac trans]
+29.4 +21.8 64 +38 +38 очень
душно
1014.0 1008.0
15 22.06 ЮВ 8 30 км 5/1 500 м
[Cu med, cong Ac trans]
+26.5 +20.8 71 +33 +33 очень
душно
1014.6 1008.6
18 22.06 ЮЗ 3 30 км 1/1 420 м
[Cu hum]
+23.1 +20.0 83 +30 +30 очень
душно
1015.4 1009.4 +30.7
21 22.06 ЮЗ 5 30 км 1/1 400 м
[Cu hum]
+21.7 +19.9 90 +27 +27 душно 1015.3 1009.3
00 23.06 Ю 4 30 км 1/1 360 м
[Cu hum]
+20.5 +19.5 94 +25 +25 комфорт 1014.5 1008.5
03 23.06 ЮЗ 4 30 км 5/3 360 м
[Cu med, cong Ac trans]
+19.8 +19.2 96 +23 +23 комфорт 1015.0 1009.0
06 23.06 Ю 6 30 км 6/1 400 м
[Cu med, cong Ci fib]
+25.0 +21.8 82 +32 +34 очень
душно
1016.4 1010.4 +19.9
09 23.06 ЮВ 9 30 км 8/8 700 м
[Cu med, cong]
+29.2 +22.2 66 +38 +38 очень
душно
1015.3 1009.3
12 23.06 ЮВ 10 30 км 8/8 840 м
[Cu med, cong]
+29.9 +20.2 56 +36 +37 очень
душно
1012.9 1006.9
15 23.06 ЮВ 8 30 км 4/3 660 м
[Cu med, cong Ac cuf]
+27.0 +21.2 71 +34 +34 очень
душно
1013.1 1007.1
18 23.06 Ю 4 30 км 1/1 420 м
[Cu hum]
+23.9 +21.8 88 +31 +31 очень
душно
1014.4 1008.4 +30.7
21 23.06 ЮЗ 4 30 км 1/1 360 м
[Cu hum]
+22.2 +20.9 92 +29 +29 очень
душно
1014.4 1008.4
03 24.06 Ю 3 30 км 1/1 330 м
[Cu hum]
+20.5 +19.9 96 +25 +25 комфорт 1014.3 1008.3
06 24.06 В 5 30 км 3/3 360 м
[Cu med, cong]
+24.8 +22.7 88 +33 +35 очень
душно
1016.1 1010.1 +20.2
15 24.06 ЮВ 11 30 км 3/3 480 м
[Cu med, cong Ac trans]
+27.4 +20.5 66 +34 +34 очень
душно
1012.7 1006.7
00 25.06 Ю 4 30 км 1/1 400 м
[Cu hum]
+22.3 +21.6 96 +29 +29 очень
душно
1013.5 1007.5

 

Местоположение метеостанции Дар-эс-Салам (Танзания): широта -6.87 долгота 39.20 высота над уровнем моря 53 м.

В архиве по умолчанию представлена погода в Дар-эс-Саламе за последнюю неделю. Архивные данные за месяц целиком и за предыдущие месяцы, начиная с января 2011 года, Вы можете получить, выбрав интересующий диапазон дат из раскрывающегося списка и нажав кнопку "Ввод!".


*Определитесь, кто Вы:
робот инопланетянин человек

Внимание! Время в таблицах - всемирное. Для получения местного времени необходимо прибавить поправку, которая равна 3 ч.

Смотрите также архив погоды в соседних городах и на ближайших метеорологических станциях:

Погода в Занзибаре (Танзания) (72 км)
Погода в Морогоро (Танзания) (171 км)
Погода в Момбасе (Кения) (319 км)
Погода в Додоме (Танзания) (387 км)
Погода в Иринге (Танзания) (388 км)
Погода в Мтваре (Танзания) (392 км)
Погода в Вои (Кения) (392 км)
Погода в Малинди (Кения) (417 км)
Погода в Аэропорту Килиманжаро (Танзания) (450 км)
Погода в Макинду (Кения) (532 км)

Пояснения к столбцам:

Ветер - указаны скорость ветра в м/с - средняя за 10 мин, порывы в срок и между сроками (в фигурных скобках) и направление, откуда дует ветер: С - северный, СВ - северо-восточный, В - восточный, ЮВ - юго-восточный, Ю - южный, ЮЗ - юго-западный, З - западный, СЗ - северо-западный.
Видимость - горизонтальная дальность видимости в метрах или километрах. При видимости от 1 до 10 км при отсутствии осадков обычно наблюдается дымка, при ухудшении видимости до 1 км и менее - туман. В сухую погоду видимость может ухудшаться дымом, пылью или мглою.
Явления - указаны атмосферные явления, наблюдавшиеся в срок или в последний час перед сроком; фигурными скобками обозначены явления, наблюдавшиеся между сроками (за 1-3 часа до срока); квадратными скобками обозначены град или гололедные отложения с указанием их диаметра в мм.
Облачность - указаны через наклонную черту общая и нижняя облачность в баллах и высота нижней границы облаков в метрах; квадратными скобками обозначены формы облаков: Ci - перистые, Cs - перисто-слоистые, Cc - перисто-кучевые, Ac - высококучевые, As - высокослоистые, Sc - слоисто-кучевые, Ns - слоисто-дождевые, Cu - кучевые, Cb - кучево-дождевые. Подробнее классификацию облаков см. в Атласе облаков (PDF).
T - Температура воздуха - температура, измеренная на высоте 2 м над землей.
Td - Температура точки росы - температура, при понижении до которой содержащийся в воздухе водяной пар достигнет насыщения.
f - Относительная влажность воздуха - влажноcть воздуха, измеренная на высоте 2 м над землей.
Te - Эффективная температура - температура, которую ощущает одетый по сезону человек в тени. Характеристика душности погоды. При расчете учитывается влияние влажности воздуха и скорости ветра на теплоощущения человека.
Tes - Эффективная температура на солнце - температура, которую ощущает человек, с поправкой на солнечный нагрев. Характеристика знойности погоды. Зависит от высоты солнца над горизонтом, облачности и скорости ветра. Ночью, в пасмурную погоду, а также при ветре 12 м/с и более поправка равна нулю.
P - Атмосферное давление - приведенное к уровню моря атмосферное давление.
Po - Атмосферное давление - измеренное на уровне метеостанции атмосферное давление.
Tmin - Минимальная температура - минимум температуры воздуха на высоте 2 м над землей.
Tmax - Максимальная температура - максимум температуры воздуха на высоте 2 м над землей.
R - Количество осадков - Количество выпавших осадков за период времени, мм. При наведении курсора мыши на число - период времени, за который выпало указанное количество осадков.
R24 - Количество осадков - Количество выпавших осадков за 24 часа, мм.
S - Снежный покров - Высота снежного покрова, см. При наведении курсора мыши на число - состояние снежного покрова и степень покрытия местности в баллах.